Location: Bucquoy
(50.1391°N, 2.7097°E)
Time: 04:01:58
(UTC+00:00)

Cosmos 1725 Rocket - Pass Details

Date: 06 May 2021
Orbit: 961 x 991 km, 82.9° (Epoch: 22 June)

Event Time Altitude Azimuth Distance (km) Brightness Sun altitude
Rises 03:07:54 0° 347° (NNW) 3,709 7.4 -9.9°
Reaches altitude 10° 03:10:28 10° 343° (NNW) 2,752 6.7 -9.6°
Maximum altitude 03:16:35 55° 268° (W) 1,168 4.2 -8.8°
Drops below altitude 10° 03:22:37 10° 193° (SSW) 2,713 5.9 -8.1°
Sets 03:25:09 0° 189° (S) 3,652 6.6 -7.7°
